Hourly Data Report for February 09, 2003

SHERBROOKE A
QUEBEC

45°26'00.000" N
71°41'00.000" W
241.40 m
7028124
71610
YSC

Download Data

Hourly Data (February 2003)
Hourly Data Report for February 9, 2003
TIME
LST
Temp Definition
°C
Dew Point Definition
°C
Rel Hum Definition
%
Precip. Amount Definition
mm

Wind Dir Definition
10's deg

Wind Spd Definition
km/h
Visibility Definition
km
Stn Press Definition
kPa
Hmdx Definition


Wind Chill Definition


Weather Definition


00:00 -6.9 -15.7 49   19 13 15.0 97.97   -12  
01:00 -7.0 -15.7 50   19 7 15.0 97.94   -11  
02:00 -6.9 -15.9 49   20 6 15.0 97.93   -10  
03:00 -6.8 -15.7 49   19 9 15.0 97.87   -11  
04:00 -6.6 -15.1 51   19 9 15.0 97.84   -11  
05:00 -6.6 -14.7 53   20 9 15.0 97.81   -11  
06:00 -6.6 -14.1 55   21 7 15.0 97.82   -10  
07:00 -6.5 -14.2 54   20 11 15.0 97.83   -11  
08:00 -6.3 -13.3 58   21 13 4.8 97.85   -12 Snow
09:00 -6.8 -11.0 72   21 15 2.4 97.86   -13 Snow
10:00 -6.2 -10.2 73   21 15 2.4 97.85   -12 Snow
11:00 -5.8 -9.8 73   21 17 1.2 97.83   -12 Snow
12:00 -5.1 -8.9 75   22 19 1.2 97.81   -12 Snow,Blowing Snow
13:00 -7.6 -11.4 74   30 19 16.1 97.85   -15 Snow Showers
14:00 -7.7 -11.0 77   28 22 1.2 97.93   -15 Snow Showers
15:00 -8.5 -13.2 69   27 24 19.3 98.04   -17 Snow Showers
16:00 -8.4 -13.9 64   26 17 19.3 98.10   -15 Snow Showers
17:00 -8.8 -13.5 69   26 22 16.1 98.20   -17 Snow Showers
18:00 -9.7 -15.2 64   25 13 15.0 98.31   -16 Snow
19:00 -11.8 -16.3 69   21 6 15.0 98.36   -16  
20:00 -12.2 -16.5 70   22 6 15.0 98.38   -16  
21:00 -11.9 -16.0 72   22 11 15.0 98.44   -18  
22:00 -12.7 -15.7 78   19 9 15.0 98.47   -18  
23:00 -12.3 -15.3 78   18 6 15.0 98.46   -16 Snow

Notes on Data Quality.

Legend

  • E = Estimated
  • M = Missing
  • NA = Not Available*
  • [empty] = Indicates an unobserved value
Date modified: